Regional Weather Roundup
Issued by NWS Cleveland, OH

Home | Current Version | Previous Version | Text Only | Print | Product List | Glossary On
Versions: 1 2 3 4 5 6 7 8 9 10 11 12 13 14 15 16 17 18 19 20 21 22 23 24 25 26 27 28 29 30 31 32 33 34 35 36 37 38 39 40 41 42 43 44 45 46 47 48 49 50
000
ASUS41 KCLE 200310
RWRCLE
OHIO REGIONAL WEATHER ROUNDUP
NATIONAL WEATHER SERVICE WILMINGTON, OH
1100 PM EDT SAT APR 19 2014

NOTE: "FAIR" INDICATES FEW OR NO CLOUDS BELOW 12,000 FEET WITH NO
SIGNIFICANT WEATHER AND/OR OBSTRUCTIONS TO VISIBILITY.

OHZ001>008-015>018-024>027-034-035-043-044-200400-
   NORTHWEST OHIO

CITY           SKY/WX    TMP DP  RH WIND       PRES   REMARKS
DEFIANCE       CLEAR     44  29  55 NE3       30.33S
FINDLAY        CLEAR     44  30  57 NE10      30.31F
TOLEDO EXPRESS CLEAR     41  29  62 E7        30.33F
TOLEDO METCALF CLEAR     41  32  70 NE8       30.35S
LIMA           CLEAR     43  29  57 NE7       30.30F
$$

OHZ009>014-019>023-028>033-038-089-200400-
   NORTHEAST OHIO

CITY           SKY/WX    TMP DP  RH WIND       PRES   REMARKS
CLE-HOPKINS    CLEAR     44  34  67 NE3       30.35F
CLE-LAKEFRONT  CLEAR     44  30  57 NE7       30.32F
CUY CO. ARPT   CLEAR     43  30  61 E8        30.34S
LORAIN-ELYRIA  CLEAR     42  31  64 CALM      30.33F
ASHTABULA      PTCLDY    41  26  55 E5        30.34S
AKRON-CANTON   MOCLDY    48  23  37 NE6       30.31S
WOOSTER        PTCLDY    42  32  67 NE3       30.31S
MANSFIELD      PTCLDY    42  30  62 CALM      30.31S
YOUNGSTOWN     MOCLDY    43  31  62 CALM      30.32S
$$

OHZ042-051>053-060>062-070>072-077>081-200400-
  SOUTHWEST OHIO

CITY           SKY/WX    TMP DP  RH WIND       PRES   REMARKS
CINC-COVINGTON PTCLDY    59  34  39 NE8       30.24S
CINC-LUNKEN    CLEAR     49  43  80 CALM      30.26R
HAMILTON       CLEAR     54  37  52 NE5       30.26S
DAYTON         PTCLDY    48  34  58 NE9       30.28S
WRIGHT-PAT AFB CLEAR     49  34  56 NE7       30.27S
DAYTON GENERAL CLEAR     52  33  48 NE10      30.25S
WILMINGTON     PTCLDY    48  33  56 NE9       30.26S
$$

OHZ036-037-039>041-045>050-054>059-063>069-073>076-082>088-200400-
  CENTRAL AND SOUTHEAST OHIO

CITY           SKY/WX    TMP DP  RH WIND       PRES   REMARKS
COLUMBUS       PTCLDY    55  27  34 NE7       30.27S
OSU AIRPORT    PTCLDY    45  33  63 N7        30.28S
BOLTON FIELD   PTCLDY    47  34  59 N6        30.28R
RICKENBACK AFB PTCLDY    52  26  36 NE7       30.27R
NEWARK         MOCLDY    52  29  41 N6        30.28R
MARION         CLEAR     40  31  70 NE6       30.30F
LANCASTER      PTCLDY    48  33  56 NE7       30.28R
ZANESVILLE     MOCLDY    53  24  32 NE3       30.27F
NEW PHILLY     MOCLDY    52  26  36 NE5       30.30S
$$



USA.gov is the U.S. government's official web portal to all federal, state and local government web resources and services.